Time,TemperatureF,DewpointF,PressureIn,WindDirection,WindDirectionDegrees,WindSpeedMPH,WindSpeedGustMPH,Humidity,HourlyPrecipIn,Conditions,Clouds,dailyrainin,SoftwareType,DateUTC
2013-02-15 00:01:00,25.0,14.0,-100.00,West,265,8.0,8.0,63,-99.99,,,0.00,,2013-02-15 07:01:00,
2013-02-15 00:11:00,25.0,14.0,-100.00,West,265,8.0,8.0,63,-99.99,,,0.00,,2013-02-15 07:11:00,
2013-02-15 00:21:00,25.0,14.0,-100.00,West,265,8.0,8.0,63,-99.99,,,0.00,,2013-02-15 07:21:00,
2013-02-15 00:52:00,25.0,14.0,-100.00,West,265,7.0,8.0,61,-99.99,,,0.00,,2013-02-15 07:52:00,
2013-02-15 01:01:00,25.0,14.0,-100.00,West,265,7.0,8.0,61,-99.99,,,0.00,,2013-02-15 08:01:00,
2013-02-15 01:11:00,25.0,14.0,-100.00,West,265,7.0,8.0,61,-99.99,,,0.00,,2013-02-15 08:11:00,
2013-02-15 01:21:00,25.0,14.0,-100.00,West,265,7.0,8.0,61,-99.99,,,0.00,,2013-02-15 08:21:00,
2013-02-15 01:53:00,27.0,13.0,-100.00,West,265,8.0,9.0,55,-99.99,,,0.00,,2013-02-15 08:53:00,
2013-02-15 02:01:00,27.0,13.0,-100.00,West,265,8.0,9.0,55,-99.99,,,0.00,,2013-02-15 09:01:00,
2013-02-15 02:12:00,27.0,13.0,-100.00,West,265,8.0,9.0,55,-99.99,,,0.00,,2013-02-15 09:12:00,
2013-02-15 02:21:00,27.0,13.0,-100.00,West,265,8.0,9.0,55,-99.99,,,0.00,,2013-02-15 09:21:00,
2013-02-15 02:52:00,23.0,12.0,-100.00,South,190,4.0,4.0,62,-99.99,,,0.00,,2013-02-15 09:52:00,
2013-02-15 03:01:00,23.0,12.0,-100.00,South,190,4.0,4.0,62,-99.99,,,0.00,,2013-02-15 10:01:00,
2013-02-15 03:11:00,23.0,12.0,-100.00,South,190,4.0,4.0,62,-99.99,,,0.00,,2013-02-15 10:11:00,
2013-02-15 03:21:00,23.0,12.0,-100.00,South,190,4.0,4.0,62,-99.99,,,0.00,,2013-02-15 10:21:00,
2013-02-15 03:52:00,25.0,12.0,-100.00,SE,145,4.0,4.0,59,-99.99,,,0.00,,2013-02-15 10:52:00,
2013-02-15 04:01:00,25.0,12.0,-100.00,SE,145,4.0,4.0,59,-99.99,,,0.00,,2013-02-15 11:01:00,
2013-02-15 04:11:00,25.0,12.0,-100.00,SE,145,4.0,4.0,59,-99.99,,,0.00,,2013-02-15 11:11:00,
2013-02-15 04:22:00,25.0,12.0,-100.00,SE,145,4.0,4.0,59,-99.99,,,0.00,,2013-02-15 11:22:00,
2013-02-15 04:52:00,25.0,14.0,-100.00,West,260,3.0,4.0,61,-99.99,,,0.00,,2013-02-15 11:52:00,
2013-02-15 05:01:00,25.0,14.0,-100.00,West,260,3.0,4.0,61,-99.99,,,0.00,,2013-02-15 12:01:00,
2013-02-15 05:11:00,25.0,14.0,-100.00,West,260,3.0,4.0,61,-99.99,,,0.00,,2013-02-15 12:11:00,
2013-02-15 05:21:00,25.0,14.0,-100.00,West,260,3.0,4.0,61,-99.99,,,0.00,,2013-02-15 12:21:00,
2013-02-15 05:52:00,26.0,13.0,-100.00,SW,230,6.0,8.0,57,-99.99,,,0.00,,2013-02-15 12:52:00,
2013-02-15 06:02:00,26.0,13.0,-100.00,SW,230,6.0,8.0,57,-99.99,,,0.00,,2013-02-15 13:02:00,
2013-02-15 06:11:00,26.0,13.0,-100.00,SW,230,6.0,8.0,57,-99.99,,,0.00,,2013-02-15 13:11:00,
2013-02-15 06:21:00,26.0,13.0,-100.00,SW,230,6.0,8.0,57,-99.99,,,0.00,,2013-02-15 13:21:00,
2013-02-15 06:52:00,24.0,13.0,-100.00,WSW,250,4.0,4.0,63,-99.99,,,0.00,,2013-02-15 13:52:00,
2013-02-15 07:01:00,24.0,13.0,-100.00,WSW,250,4.0,4.0,63,-99.99,,,0.00,,2013-02-15 14:01:00,
2013-02-15 07:11:00,24.0,13.0,-100.00,WSW,250,4.0,4.0,63,-99.99,,,0.00,,2013-02-15 14:11:00,
2013-02-15 07:21:00,24.0,13.0,-100.00,WSW,250,4.0,4.0,63,-99.99,,,0.00,,2013-02-15 14:21:00,
2013-02-15 08:22:00,24.0,13.0,-100.00,North,350,2.0,3.0,62,-99.99,,,-99.99,,2013-02-15 15:22:00,
2013-02-15 08:52:00,24.0,13.0,-100.00,North,350,2.0,3.0,62,-99.99,,,-99.99,,2013-02-15 15:52:00,
2013-02-15 09:01:00,24.0,13.0,-100.00,North,350,2.0,3.0,62,-99.99,,,-99.99,,2013-02-15 16:01:00,
2013-02-15 09:11:00,24.0,13.0,-100.00,North,350,2.0,3.0,62,-99.99,,,-99.99,,2013-02-15 16:11:00,
2013-02-15 09:52:00,33.0,19.0,-100.00,SSW,210,16.0,17.0,56,-99.99,,,0.00,,2013-02-15 16:52:00,
2013-02-15 10:01:00,33.0,19.0,-100.00,SSW,210,16.0,17.0,56,-99.99,,,0.00,,2013-02-15 17:01:00,
2013-02-15 10:11:00,33.0,19.0,-100.00,SSW,210,16.0,17.0,56,-99.99,,,0.00,,2013-02-15 17:11:00,
2013-02-15 10:21:00,33.0,19.0,-100.00,SSW,210,16.0,17.0,56,-99.99,,,0.00,,2013-02-15 17:21:00,
2013-02-15 10:52:00,35.0,20.0,-100.00,SW,220,22.0,25.0,54,-99.99,,,0.00,,2013-02-15 17:52:00,
2013-02-15 11:01:00,35.0,20.0,-100.00,SW,220,22.0,25.0,54,-99.99,,,0.00,,2013-02-15 18:01:00,
2013-02-15 11:11:00,35.0,20.0,-100.00,SW,220,22.0,25.0,54,-99.99,,,0.00,,2013-02-15 18:11:00,
2013-02-15 11:21:00,35.0,20.0,-100.00,SW,220,22.0,25.0,54,-99.99,,,0.00,,2013-02-15 18:21:00,
2013-02-15 11:52:00,38.0,22.0,-100.00,SW,225,17.0,22.0,52,-99.99,,,0.00,,2013-02-15 18:52:00,
2013-02-15 12:01:00,38.0,22.0,-100.00,SW,225,17.0,22.0,52,-99.99,,,0.00,,2013-02-15 19:01:00,
2013-02-15 12:11:00,38.0,22.0,-100.00,SW,225,17.0,22.0,52,-99.99,,,0.00,,2013-02-15 19:11:00,
2013-02-15 12:21:00,38.0,22.0,-100.00,SW,225,17.0,22.0,52,-99.99,,,0.00,,2013-02-15 19:21:00,
2013-02-15 12:52:00,41.0,24.0,-100.00,SSW,210,19.0,22.0,50,-99.99,,,0.00,,2013-02-15 19:52:00,
2013-02-15 13:01:00,41.0,24.0,-100.00,SSW,210,19.0,22.0,50,-99.99,,,0.00,,2013-02-15 20:01:00,
2013-02-15 13:11:00,41.0,24.0,-100.00,SSW,210,19.0,22.0,50,-99.99,,,0.00,,2013-02-15 20:11:00,
2013-02-15 13:21:00,41.0,24.0,-100.00,SSW,210,19.0,22.0,50,-99.99,,,0.00,,2013-02-15 20:21:00,
2013-02-15 13:52:00,42.0,23.0,-100.00,SW,225,21.0,22.0,47,-99.99,,,0.00,,2013-02-15 20:52:00,
2013-02-15 14:01:00,42.0,23.0,-100.00,SW,225,21.0,22.0,47,-99.99,,,0.00,,2013-02-15 21:01:00,
2013-02-15 14:11:00,42.0,23.0,-100.00,SW,225,21.0,22.0,47,-99.99,,,0.00,,2013-02-15 21:11:00,
2013-02-15 14:21:00,42.0,23.0,-100.00,SW,225,21.0,22.0,47,-99.99,,,0.00,,2013-02-15 21:21:00,
2013-02-15 14:52:00,43.0,24.0,-100.00,SW,230,17.0,20.0,46,-99.99,,,0.00,,2013-02-15 21:52:00,
2013-02-15 15:02:00,43.0,24.0,-100.00,SW,230,17.0,20.0,46,-99.99,,,0.00,,2013-02-15 22:02:00,
2013-02-15 15:11:00,43.0,24.0,-100.00,SW,230,17.0,20.0,46,-99.99,,,0.00,,2013-02-15 22:11:00,
2013-02-15 15:21:00,43.0,24.0,-100.00,SW,230,17.0,20.0,46,-99.99,,,0.00,,2013-02-15 22:21:00,
2013-02-15 15:52:00,44.0,23.0,-100.00,SW,235,16.0,17.0,44,-99.99,,,0.00,,2013-02-15 22:52:00,
2013-02-15 16:02:00,44.0,23.0,-100.00,SW,235,16.0,17.0,44,-99.99,,,0.00,,2013-02-15 23:02:00,
2013-02-15 16:11:00,44.0,23.0,-100.00,SW,235,16.0,17.0,44,-99.99,,,0.00,,2013-02-15 23:11:00,
2013-02-15 16:21:00,44.0,23.0,-100.00,SW,235,16.0,17.0,44,-99.99,,,0.00,,2013-02-15 23:21:00,
2013-02-15 16:52:00,43.0,22.0,-100.00,SW,230,17.0,20.0,44,-99.99,,,0.00,,2013-02-15 23:52:00,
2013-02-15 17:02:00,43.0,22.0,-100.00,SW,230,17.0,20.0,44,-99.99,,,0.00,,2013-02-16 00:02:00,
2013-02-15 17:11:00,43.0,22.0,-100.00,SW,230,17.0,20.0,44,-99.99,,,0.00,,2013-02-16 00:11:00,
2013-02-15 17:21:00,43.0,22.0,-100.00,SW,230,17.0,20.0,44,-99.99,,,0.00,,2013-02-16 00:21:00,
2013-02-15 17:52:00,39.0,21.0,-100.00,WSW,245,20.0,22.0,49,-99.99,,,0.00,,2013-02-16 00:52:00,
2013-02-15 18:02:00,39.0,21.0,-100.00,WSW,245,20.0,22.0,49,-99.99,,,0.00,,2013-02-16 01:02:00,
2013-02-15 18:11:00,39.0,21.0,-100.00,WSW,245,20.0,22.0,49,-99.99,,,0.00,,2013-02-16 01:11:00,
2013-02-15 18:21:00,39.0,21.0,-100.00,WSW,245,20.0,22.0,49,-99.99,,,0.00,,2013-02-16 01:21:00,
2013-02-15 18:52:00,36.0,22.0,-100.00,SW,220,17.0,19.0,55,-99.99,,,0.00,,2013-02-16 01:52:00,
2013-02-15 19:01:00,36.0,22.0,-100.00,SW,220,17.0,19.0,55,-99.99,,,0.00,,2013-02-16 02:01:00,
2013-02-15 19:11:00,36.0,22.0,-100.00,SW,220,17.0,19.0,55,-99.99,,,0.00,,2013-02-16 02:11:00,
2013-02-15 19:21:00,36.0,22.0,-100.00,SW,220,17.0,19.0,55,-99.99,,,0.00,,2013-02-16 02:21:00,
2013-02-15 20:52:00,42.0,22.0,-100.00,West,280,18.0,21.0,46,-99.99,,,-99.99,,2013-02-16 03:52:00,
2013-02-15 21:01:00,42.0,22.0,-100.00,West,280,18.0,21.0,46,-99.99,,,-99.99,,2013-02-16 04:01:00,
2013-02-15 21:11:00,42.0,22.0,-100.00,West,280,18.0,21.0,46,-99.99,,,-99.99,,2013-02-16 04:11:00,
2013-02-15 21:21:00,42.0,22.0,-100.00,West,280,18.0,21.0,46,-99.99,,,-99.99,,2013-02-16 04:21:00,
2013-02-15 21:52:00,34.0,21.0,-100.00,WSW,245,9.0,11.0,58,-99.99,,,0.00,,2013-02-16 04:52:00,
2013-02-15 22:01:00,34.0,21.0,-100.00,WSW,245,9.0,11.0,58,-99.99,,,0.00,,2013-02-16 05:01:00,
2013-02-15 22:11:00,34.0,21.0,-100.00,WSW,245,9.0,11.0,58,-99.99,,,0.00,,2013-02-16 05:11:00,
2013-02-15 22:21:00,34.0,21.0,-100.00,WSW,245,9.0,11.0,58,-99.99,,,0.00,,2013-02-16 05:21:00,
2013-02-15 22:52:00,36.0,23.0,-100.00,SSW,205,14.0,14.0,58,-99.99,,,0.00,,2013-02-16 05:52:00,
2013-02-15 23:01:00,36.0,23.0,-100.00,SSW,205,14.0,14.0,58,-99.99,,,0.00,,2013-02-16 06:01:00,
2013-02-15 23:11:00,36.0,23.0,-100.00,SSW,205,14.0,14.0,58,-99.99,,,0.00,,2013-02-16 06:11:00,
2013-02-15 23:21:00,36.0,23.0,-100.00,SSW,205,14.0,14.0,58,-99.99,,,0.00,,2013-02-16 06:21:00,
2013-02-15 23:52:00,35.0,22.0,-100.00,SW,220,13.0,14.0,59,-99.99,,,0.00,,2013-02-16 06:52:00,